TimePST,TemperatureF,Dew PointF,Humidity,Sea Level PressureIn,VisibilityMPH,Wind Direction,Wind SpeedMPH,Gust SpeedMPH,PrecipitationIn,Events,Conditions,WindDirDegrees,DateUTC
12:00 AM,-50.8,-9999,N/A,30.10,10.0,Calm,Calm,-,N/A,Fog,Clear,0,2012-12-19 08:00:00
1:00 AM,-50.8,-9999,N/A,30.12,6.0,Calm,Calm,-,N/A,,Clear,0,2012-12-19 09:00:00
2:00 AM,-50.8,-9999,N/A,30.13,6.0,Calm,Calm,-,N/A,,Clear,0,2012-12-19 10:00:00
3:00 AM,-50.8,-9999,N/A,30.14,6.0,Calm,Calm,-,N/A,,Clear,0,2012-12-19 11:00:00
4:00 AM,-50.8,-9999,N/A,30.14,6.0,Calm,Calm,-,N/A,,Clear,0,2012-12-19 12:00:00
5:00 AM,-50.8,-9999,N/A,30.16,6.0,Calm,Calm,-,N/A,,Clear,0,2012-12-19 13:00:00
6:00 AM,-50.8,-9999,N/A,30.17,10.0,Calm,Calm,-,N/A,Fog,Clear,0,2012-12-19 14:00:00
7:00 AM,-50.8,-9999,N/A,30.20,10.0,Calm,Calm,-,N/A,Fog,Clear,0,2012-12-19 15:00:00
8:00 AM,-50.8,-9999,N/A,30.21,6.0,Calm,Calm,-,N/A,,Clear,0,2012-12-19 16:00:00
9:00 AM,-50.8,-9999,N/A,30.23,6.0,Calm,Calm,-,N/A,,Clear,0,2012-12-19 17:00:00
10:00 AM,-50.8,-9999,N/A,30.25,20.0,Calm,Calm,-,N/A,,Clear,0,2012-12-19 18:00:00
11:00 AM,-50.8,-9999,N/A,30.28,4.0,Calm,Calm,-,N/A,,Clear,0,2012-12-19 19:00:00
12:00 PM,-49.0,-9999,N/A,30.30,2.0,Calm,Calm,-,N/A,,Clear,0,2012-12-19 20:00:00
1:00 PM,-50.8,-9999,N/A,30.32,2.0,Calm,Calm,-,N/A,,Partly Cloudy,0,2012-12-19 21:00:00
2:00 PM,-49.0,-9999,N/A,30.35,5.0,Calm,Calm,-,N/A,,Partly Cloudy,0,2012-12-19 22:00:00
3:00 PM,-49.0,-9999,N/A,30.36,5.0,Calm,Calm,-,N/A,,Partly Cloudy,0,2012-12-19 23:00:00
4:00 PM,-50.8,-9999,N/A,30.38,5.0,Calm,Calm,-,N/A,,Partly Cloudy,0,2012-12-20 00:00:00
5:00 PM,-50.8,-9999,N/A,30.40,5.0,Calm,Calm,-,N/A,,Partly Cloudy,0,2012-12-20 01:00:00
6:00 PM,-50.8,-9999,N/A,30.42,5.0,Calm,Calm,-,N/A,,Clear,0,2012-12-20 02:00:00
7:00 PM,-50.8,-9999,N/A,30.44,10.0,Calm,Calm,-,N/A,Fog,Shallow Fog,0,2012-12-20 03:00:00
8:00 PM,-50.8,-9999,N/A,30.46,1.0,Calm,Calm,-,N/A,,Clear,0,2012-12-20 04:00:00
9:00 PM,-52.6,-9999,N/A,30.48,5.0,Calm,Calm,-,N/A,,Clear,0,2012-12-20 05:00:00
11:00 PM,-50.8,-9999,N/A,30.51,4.0,Calm,Calm,-,N/A,,Clear,0,2012-12-20 07:00:00